Theta_e
324 325 326 324 320 319 322 319 316 317 321 330 325 320 332 335 329 339 345 347 356 350 344 357 359 356 357 354 353 357 358 356 352 352 353 352 351 349 347 348 349 348 346 345 345 346 346 347 347 347 348 348 349 349 349 349 349 349 349 348 347 346 346
325 323 325 329 325 326 331 322 321 322 318 326 326 317 324 326 319 331 342 345 350 343 342 360 367 360 358 358 355 356 360 360 356 355 354 352 351 349 349 349 348 348 347 345 345 345 346 347 347 347 348 349 349 349 349 349 349 349 349 348 347 345 346
328 330 327 329 330 330 329 326 328 323 313 317 323 319 319 320 321 331 337 342 346 343 349 364 367 362 360 358 356 357 361 364 362 361 359 356 353 350 350 349 349 349 347 346 346 345 346 347 347 348 348 349 349 349 350 349 349 350 349 348 347 346 346
324 333 334 328 331 334 332 336 339 335 326 320 320 322 322 321 324 328 331 340 346 349 359 366 364 363 360 356 358 358 357 360 363 362 360 361 359 353 351 350 349 349 347 347 348 345 346 346 346 348 348 348 350 349 350 350 349 350 349 348 347 347 348
325 327 329 325 328 330 332 339 339 340 338 326 321 325 326 328 331 331 330 334 344 356 365 368 365 361 357 356 358 357 355 356 360 360 358 361 363 358 353 351 349 349 348 347 348 347 346 346 346 347 348 348 350 349 350 350 350 350 350 349 348 348 349
326 327 328 326 328 329 336 342 336 335 336 329 326 326 326 333 336 336 334 332 345 360 362 363 365 359 356 357 356 355 355 354 356 358 356 357 362 362 359 356 353 350 348 347 349 349 347 347 347 347 348 349 349 350 350 350 350 350 350 350 349 349 349
327 328 327 326 329 332 339 341 338 339 338 335 334 329 329 332 332 338 341 339 351 360 354 359 362 356 356 355 353 355 355 353 353 355 354 353 359 364 361 359 357 351 348 347 347 348 347 347 347 347 348 349 349 350 350 350 350 350 350 351 350 350 350
343 336 334 333 333 336 337 337 341 342 338 339 341 339 338 334 333 341 340 339 351 354 350 357 357 353 354 351 351 354 352 353 353 352 352 351 355 361 360 361 359 350 347 348 347 346 346 346 346 347 348 349 349 350 350 350 350 350 351 351 350 351 350
340 337 340 337 333 336 338 341 344 342 342 344 341 340 339 332 335 341 335 336 350 350 348 353 351 349 353 350 350 352 351 353 352 350 351 349 351 356 357 359 361 356 354 352 347 346 347 346 346 346 347 348 350 350 350 351 350 350 350 350 351 351 350
332 333 336 336 334 334 334 341 345 342 344 343 338 338 335 330 337 340 336 341 349 348 349 352 350 350 351 350 349 349 350 351 351 351 350 348 350 354 354 355 357 358 358 354 347 346 347 346 346 346 347 348 350 350 350 351 351 351 351 351 351 351 351
338 340 345 344 341 334 329 335 342 344 347 346 342 340 336 336 343 344 347 349 342 341 351 351 349 350 350 351 350 349 350 350 349 350 349 349 351 351 351 352 351 354 356 353 349 347 346 346 346 346 347 348 350 350 351 351 352 351 351 351 351 351 351
342 348 349 344 339 334 334 336 337 342 350 348 342 339 337 338 339 341 353 354 341 346 360 353 348 350 351 353 352 350 350 349 348 350 349 349 350 348 348 349 349 350 351 352 350 347 346 347 346 346 347 348 350 351 351 351 352 352 352 352 352 351 351
342 346 343 344 343 340 345 349 342 341 348 346 341 344 346 341 336 339 348 349 346 356 363 353 348 350 351 353 352 348 348 348 348 348 348 349 349 348 348 349 349 349 349 351 350 347 347 347 346 346 347 348 350 350 351 352 352 353 353 352 352 352 352
338 342 340 346 346 339 344 350 348 347 350 349 346 350 352 343 340 346 349 347 351 356 356 352 351 349 350 351 350 348 346 347 348 348 348 348 347 348 348 349 349 348 348 350 349 347 347 346 345 347 346 347 349 350 351 352 352 353 353 353 353 353 352
335 345 345 346 345 340 340 346 350 349 347 346 347 350 352 347 345 352 352 352 356 355 351 352 352 349 350 351 351 349 345 345 347 348 348 348 347 347 347 347 348 347 348 349 348 347 347 345 345 346 346 347 348 349 351 351 352 353 353 354 354 353 353
330 339 341 344 344 339 335 339 345 345 341 342 348 350 350 350 351 351 347 349 358 355 348 348 348 347 348 350 349 348 345 344 346 348 349 348 346 346 345 345 345 346 347 348 347 348 347 346 345 345 345 347 347 349 350 350 352 353 353 353 353 353 353
331 337 338 342 341 336 335 337 338 343 348 349 349 350 350 351 354 354 349 352 356 351 345 346 347 346 347 347 347 346 345 345 346 347 348 346 345 345 345 345 345 345 346 346 346 347 347 347 347 345 345 346 346 348 349 350 351 352 352 353 352 352 351
329 337 339 336 333 334 339 339 336 341 350 351 349 353 355 353 353 355 354 352 348 345 346 348 346 346 347 346 346 347 346 346 346 347 347 345 345 346 345 346 346 345 346 345 345 347 348 348 348 347 345 345 346 347 348 349 350 350 351 351 351 352 351
329 338 340 332 332 340 344 342 341 344 348 349 349 354 359 356 353 355 356 354 348 344 346 345 343 345 346 345 347 347 347 347 347 348 347 346 346 347 347 347 345 345 346 345 344 345 347 349 349 348 347 346 346 346 347 348 349 349 350 350 350 351 350
330 333 333 331 335 344 343 339 342 344 345 344 341 343 354 359 355 355 361 358 348 343 342 343 343 345 346 348 350 348 347 347 348 347 348 347 346 347 347 346 345 344 345 345 344 343 346 347 347 348 348 347 347 347 347 348 348 348 349 349 349 349 349
332 332 331 333 334 333 336 341 343 341 343 346 341 336 347 360 356 353 361 357 344 342 346 346 345 345 346 348 350 348 347 347 347 347 346 345 346 346 345 344 344 344 344 345 344 343 344 346 346 347 348 348 348 348 348 348 348 348 348 348 348 348 348
337 338 332 333 330 330 340 348 343 340 344 350 347 340 345 357 353 349 359 357 344 343 348 347 346 346 347 349 349 348 348 348 347 346 344 343 344 344 343 343 343 343 344 345 345 344 344 345 345 346 348 349 348 348 348 348 348 347 348 348 348 348 348
331 334 331 331 331 335 346 349 343 343 344 344 344 342 345 353 349 346 355 356 346 344 346 345 345 346 349 354 352 348 347 346 345 344 343 342 343 343 343 343 343 343 344 344 345 345 344 344 344 345 347 349 349 348 348 348 348 348 348 348 348 348 349
331 331 327 329 332 334 341 347 349 349 343 336 337 341 344 350 347 344 353 357 349 344 345 345 346 348 352 354 348 344 345 344 342 342 341 341 341 342 342 343 343 343 344 344 345 345 344 344 344 344 345 347 347 346 345 345 346 347 347 347 348 349 349
338 331 321 323 334 340 345 351 352 347 339 335 338 341 343 348 347 345 351 355 348 342 343 344 345 347 350 347 342 342 345 344 342 340 339 340 341 341 341 342 343 343 343 343 344 345 344 344 344 344 344 343 344 344 344 344 344 344 345 346 347 347 348
333 337 333 329 332 340 349 351 346 339 334 338 345 345 340 343 349 348 350 352 346 341 342 343 342 345 345 342 342 343 343 343 342 339 338 340 340 340 341 342 342 343 342 342 343 344 344 344 344 344 343 343 344 345 345 345 344 344 344 345 345 345 346
333 339 339 331 327 333 342 342 339 337 334 338 350 351 343 343 350 350 350 352 346 341 342 342 342 344 343 342 343 342 341 342 340 337 338 340 339 339 340 340 341 343 340 340 341 343 344 345 345 345 345 345 346 345 344 345 345 345 346 345 345 345 345
338 338 337 337 338 340 339 335 337 343 340 338 347 356 352 347 346 349 353 351 343 340 343 342 342 343 343 341 342 342 340 341 339 337 337 338 337 339 339 339 340 341 339 338 339 341 345 346 347 347 346 345 344 343 343 345 345 345 345 345 345 345 345
343 346 346 347 346 344 341 338 341 347 343 340 346 355 356 350 345 348 353 349 341 340 341 341 342 343 342 341 341 341 340 340 339 338 337 336 337 338 338 338 339 339 337 337 337 339 343 346 347 347 346 345 343 342 342 343 345 345 345 345 345 344 343
339 341 341 342 344 346 346 342 341 344 345 345 348 352 355 351 346 347 350 346 342 339 339 340 342 341 341 341 341 340 340 339 338 337 336 336 337 337 337 338 338 338 337 337 336 337 339 342 344 345 345 344 342 341 342 343 344 344 344 344 343 342 342
333 336 340 346 348 348 348 345 342 343 345 346 347 351 354 351 345 345 346 342 339 339 339 341 342 341 340 340 340 341 341 339 339 338 336 337 337 336 336 336 336 337 337 336 336 336 336 338 340 340 341 341 340 341 342 343 343 344 343 342 341 339 339
340 339 342 347 348 345 346 349 347 346 347 348 346 347 349 347 342 341 340 338 339 342 341 341 342 342 340 340 341 341 340 339 339 337 336 336 336 335 335 335 334 335 335 334 335 334 334 335 337 337 337 337 337 339 341 342 342 342 341 340 338 337 337
348 344 341 344 344 343 346 349 349 347 347 350 349 345 343 341 340 339 337 337 339 340 339 340 342 341 340 340 342 341 340 339 339 337 335 335 336 335 334 334 334 334 334 334 334 333 334 335 336 337 337 336 336 338 340 341 341 340 339 337 336 335 335
347 350 350 344 343 349 352 349 348 347 345 346 348 345 342 341 340 340 340 338 337 337 336 337 340 341 341 339 339 340 340 337 335 334 333 334 335 335 334 334 335 334 334 334 334 333 333 334 334 336 337 336 336 337 338 340 340 339 338 336 334 333 334
351 358 357 345 344 354 353 345 345 345 342 345 349 348 345 342 338 339 341 341 340 339 336 334 336 340 339 335 335 339 338 334 332 332 332 333 334 334 334 334 333 333 333 333 333 333 332 333 334 335 335 335 336 336 337 338 337 337 337 336 333 332 333
347 352 355 344 342 347 345 343 346 342 338 344 350 348 343 340 337 337 339 340 341 341 339 335 334 334 334 332 334 337 335 331 331 330 330 332 332 332 332 332 332 332 332 332 332 332 332 332 333 333 334 334 335 335 336 337 337 337 337 336 333 331 330
338 347 349 342 346 350 343 338 341 338 334 341 349 346 340 337 336 335 337 338 338 337 338 337 334 332 333 332 333 333 331 330 331 330 329 330 331 330 331 331 331 331 332 332 332 333 332 332 331 331 331 331 331 332 332 333 333 333 333 332 330 329 328
Wind_Speed
3 3 1 2 4 2 1 1 1 2 3 6 3 1 0 3 2 2 1 2 4 2 2 5 6 7 8 10 10 8 6 2 4 6 7 7 8 8 8 8 9 10 14 18 21 23 24 24 26 27 28 29 30 29 29 29 29 29 28 28 28 28 27
2 0 2 3 2 4 3 1 3 3 2 4 3 1 3 3 1 4 2 2 4 2 1 4 8 9 9 9 8 7 6 4 1 2 2 5 7 7 7 8 9 9 13 17 20 22 25 27 28 29 30 30 30 30 30 30 30 29 29 29 28 28 28
5 4 4 3 5 3 4 2 3 2 3 1 1 1 1 1 1 3 3 3 3 2 3 4 6 6 8 8 7 6 6 5 3 2 1 2 4 5 6 7 8 9 12 17 21 23 25 28 28 29 29 29 29 29 29 29 30 31 30 29 28 28 28
3 6 4 1 5 5 4 2 2 2 3 3 0 1 2 2 1 2 3 3 2 4 4 2 3 4 4 6 6 5 5 5 4 3 2 2 3 5 6 7 8 9 12 18 22 23 25 27 28 28 28 28 29 29 29 29 29 29 29 29 29 29 29
3 2 1 1 2 2 2 3 3 3 2 1 1 1 1 2 3 2 0 2 4 5 3 4 4 4 3 3 4 4 5 5 4 4 3 3 2 3 5 6 7 8 11 17 21 23 24 25 24 25 26 28 29 28 29 29 28 28 28 29 30 30 30
2 2 4 2 3 3 3 2 1 1 1 1 3 1 2 1 3 3 3 2 6 5 1 3 3 2 1 2 4 5 5 5 5 5 3 2 2 2 2 4 5 5 7 11 13 14 16 19 23 24 25 26 27 28 29 29 28 28 29 30 30 30 30
2 7 7 3 2 3 4 2 2 3 1 3 5 2 3 1 2 1 3 1 5 5 1 2 1 0 1 2 4 5 5 5 5 4 4 3 2 3 3 3 3 4 5 6 6 3 4 8 13 19 24 26 26 28 29 28 28 30 30 30 30 30 29
4 5 6 4 2 3 3 2 2 3 1 1 4 4 3 2 2 2 2 1 5 4 3 3 3 2 2 2 4 5 6 5 4 5 5 4 4 3 3 4 4 6 9 11 11 11 7 4 9 12 16 23 26 27 27 28 29 30 30 30 29 29 29
5 5 6 6 4 3 2 2 2 1 2 3 2 1 2 0 3 4 4 3 5 3 3 4 4 4 3 4 4 6 6 5 4 5 4 4 4 4 3 3 5 7 8 10 13 17 18 17 15 15 16 19 23 26 27 28 29 29 29 29 28 29 29
1 1 2 3 2 0 0 1 3 1 3 3 1 1 3 1 3 3 4 4 5 4 3 4 4 3 3 3 4 6 6 6 6 6 5 4 4 4 5 4 4 7 8 9 13 18 20 23 27 26 22 21 22 24 27 29 29 28 28 28 28 28 28
6 6 6 5 3 2 1 1 1 1 1 3 3 3 1 3 2 1 4 4 3 4 3 2 2 2 2 3 4 5 6 6 6 6 6 6 4 4 4 4 4 5 6 6 10 16 21 25 28 29 28 24 22 23 25 26 27 27 27 28 28 28 28
6 7 5 3 3 3 3 3 2 2 1 3 4 2 3 3 3 3 6 3 2 5 4 3 2 2 3 3 4 5 6 6 6 5 7 8 6 5 5 5 5 5 5 5 7 12 18 23 25 24 25 24 24 25 25 25 25 26 27 28 28 28 28
5 4 3 2 3 2 3 5 3 3 3 4 4 4 5 5 4 6 6 3 5 6 4 4 3 3 4 4 4 5 6 7 7 6 8 9 8 7 7 6 6 5 5 4 4 9 14 18 20 21 21 22 24 25 24 24 24 24 24 26 27 27 27
5 2 2 4 4 3 1 3 4 4 4 5 5 5 5 5 5 6 4 3 7 6 5 5 3 2 3 4 4 6 6 7 7 7 8 9 8 8 8 7 7 6 5 4 2 5 10 14 17 19 20 20 22 24 24 24 24 24 24 23 23 23 22
5 4 2 2 4 4 2 5 4 3 2 3 3 3 3 3 4 5 1 2 7 5 3 3 2 2 3 4 6 6 5 6 7 7 8 7 8 8 8 7 7 7 7 5 3 3 6 12 16 19 20 21 22 23 24 25 26 26 25 24 23 22 20
4 4 3 3 4 4 1 6 7 5 3 3 3 3 3 4 3 2 0 2 5 4 1 1 2 3 4 6 6 5 5 6 7 7 7 7 7 8 8 7 7 7 7 6 5 4 6 10 15 19 21 21 21 23 25 27 28 27 27 26 24 22 19
4 5 1 4 5 6 3 6 6 5 3 3 3 2 4 5 5 4 3 4 4 2 2 2 3 5 6 6 4 3 4 6 7 7 7 8 8 7 7 7 8 7 6 6 6 6 7 9 14 18 21 23 24 24 24 25 26 26 26 25 22 20 19
3 6 1 4 4 2 4 5 4 4 3 4 5 4 5 5 3 3 3 3 3 4 5 5 5 5 5 4 3 2 3 4 5 6 6 6 7 7 7 7 7 6 6 7 7 6 6 9 12 16 20 22 23 22 22 22 22 23 24 23 22 23 24
1 2 4 4 2 5 6 5 3 4 3 5 4 5 5 5 4 2 2 3 4 6 6 5 5 4 2 2 2 3 3 3 4 5 5 6 7 7 7 7 7 7 8 8 7 6 4 6 9 12 16 18 17 17 18 19 21 22 24 24 24 24 26
2 1 3 2 5 6 5 6 4 3 2 3 1 5 6 6 6 5 4 4 5 5 4 4 3 1 2 1 1 2 3 3 3 4 5 6 6 6 6 7 8 11 13 10 8 7 4 3 5 7 10 12 14 16 18 20 21 22 23 24 24 25 25
2 2 2 2 4 5 4 4 3 3 3 4 3 2 6 6 7 7 5 4 5 3 2 2 1 2 2 1 2 2 3 3 3 3 4 5 5 6 7 8 11 14 16 12 8 8 5 3 5 7 10 12 15 17 18 19 20 20 21 22 23 23 23
3 4 1 1 2 3 5 6 4 2 4 5 6 3 5 6 5 7 6 6 6 4 4 3 2 3 1 1 3 3 2 3 3 3 4 5 6 8 8 9 12 15 17 14 9 6 4 2 1 8 15 16 16 16 16 17 19 18 17 18 20 22 24
2 4 3 2 3 4 6 6 6 4 4 5 5 4 5 6 4 6 6 7 7 6 6 5 3 2 1 3 4 3 1 2 3 4 4 5 7 9 10 9 10 13 15 12 6 2 1 1 3 7 15 17 16 16 16 16 18 18 18 18 19 21 22
2 3 2 2 3 4 4 6 6 4 3 5 5 2 6 5 4 5 6 7 8 7 6 5 4 3 3 3 4 2 2 3 3 4 4 4 6 10 11 11 10 11 11 9 3 2 3 3 5 9 13 14 13 13 13 12 13 14 15 15 14 15 16
3 4 2 3 4 4 5 5 5 3 2 5 4 3 6 3 4 4 5 7 7 7 7 6 4 4 3 3 3 2 3 3 4 6 6 6 6 8 10 11 10 9 8 6 1 4 7 6 7 10 12 11 10 11 12 11 10 9 10 10 11 12 13
2 3 2 2 4 4 4 3 1 1 2 2 3 5 3 2 4 4 3 5 6 6 7 6 4 2 2 2 1 2 3 3 3 5 6 6 7 8 10 11 10 9 8 7 3 4 8 9 8 10 12 11 11 12 12 11 9 8 8 8 9 10 11
2 2 3 1 2 3 3 5 2 0 2 4 5 2 1 0 4 3 2 3 5 5 5 4 4 3 3 2 3 3 3 4 3 3 4 6 7 10 12 12 11 9 10 10 7 3 5 8 9 11 11 11 12 13 13 11 9 8 7 7 6 7 7
3 3 1 3 4 5 2 4 3 4 4 4 4 3 1 0 2 3 2 2 4 5 6 5 6 5 4 3 3 3 3 3 2 2 4 6 8 10 12 13 13 12 13 14 11 8 9 10 11 12 12 12 12 13 12 11 11 10 10 10 9 7 5
3 4 5 5 4 3 3 2 4 5 5 3 4 4 3 2 3 3 3 3 3 4 6 7 6 5 4 4 3 3 2 1 2 2 4 6 8 10 11 12 14 15 15 14 14 13 13 13 12 12 12 12 11 10 10 12 13 14 15 14 13 12 11
3 3 3 3 3 3 2 2 4 4 3 3 4 4 3 3 4 3 3 5 4 5 7 6 5 4 5 5 4 2 2 2 3 3 5 7 9 10 11 11 12 14 15 13 12 14 13 11 12 12 11 11 10 9 10 13 14 15 16 17 16 16 16
2 1 3 3 3 3 3 3 3 2 1 1 2 4 3 4 4 4 4 5 6 6 6 6 6 5 6 6 4 3 3 3 3 4 5 7 9 10 11 12 13 15 15 13 13 14 13 12 12 13 11 11 10 11 12 13 13 14 16 18 18 17 17
3 3 6 5 4 5 5 3 3 2 2 1 0 2 3 4 4 4 4 6 7 6 5 6 7 6 5 6 6 4 3 3 3 4 5 6 8 11 13 14 16 17 16 16 16 16 15 13 14 14 13 13 12 13 14 13 12 14 16 17 18 18 18
1 4 5 3 4 6 6 5 5 4 4 3 2 2 3 5 6 5 5 5 5 6 6 6 6 6 5 5 6 5 3 3 3 5 6 7 9 11 13 15 16 17 16 16 16 16 15 14 14 14 14 13 13 15 15 14 14 16 17 16 17 18 19
2 4 5 4 2 3 5 5 6 6 6 5 4 4 4 5 6 7 6 4 3 5 7 7 7 6 5 4 5 5 3 3 5 6 8 9 9 10 12 14 15 16 16 15 15 16 15 15 15 14 14 13 14 15 15 14 16 18 18 17 17 17 19
5 7 7 6 5 3 4 4 4 5 6 7 6 6 6 6 7 8 8 7 5 5 5 6 7 7 5 6 7 5 4 5 8 9 9 10 10 10 11 12 13 15 15 16 16 17 17 18 18 16 15 14 14 14 13 14 16 17 18 18 17 17 18
3 5 7 7 5 3 3 4 4 5 6 7 6 6 5 6 6 7 8 8 8 7 5 5 7 9 8 8 8 6 5 7 10 11 10 11 11 11 11 13 14 15 15 16 17 18 19 21 21 20 18 16 15 14 13 14 15 17 18 18 18 16 16
1 2 4 6 5 3 2 2 3 4 5 5 5 5 5 6 7 7 7 6 7 8 7 5 7 10 11 10 10 9 8 9 10 12 12 12 12 12 13 14 14 14 14 15 16 17 19 21 21 22 21 19 17 17 16 16 17 18 18 19 18 17 17
Wind_Direction
43 65 359 82 104 158 249 82 105 241 175 123 109 195 184 88 129 265 284 276 304 336 277 304 350 4 17 21 15 13 3 360 163 187 197 191 199 201 196 197 195 190 187 188 191 192 193 194 195 197 198 198 200 201 202 203 204 205 207 208 210 211 212
314 319 82 30 52 124 97 78 214 214 116 94 107 135 11 43 203 277 329 279 299 355 248 312 358 5 2 7 6 0 355 2 109 200 208 204 200 195 198 199 195 193 190 191 193 194 195 196 197 199 200 200 201 202 203 203 203 204 206 208 209 210 211
295 336 60 11 341 42 92 155 199 131 114 81 22 108 130 67 233 287 320 302 269 195 229 309 348 351 345 346 350 353 350 348 321 287 296 246 203 189 203 204 195 193 193 195 196 196 198 199 200 201 200 200 200 202 205 206 206 206 206 207 208 209 211
321 356 48 46 316 339 23 42 14 36 129 155 39 122 160 159 184 261 315 332 282 221 220 243 278 302 329 333 338 341 324 314 297 264 233 222 203 197 204 204 203 199 195 198 199 198 200 200 201 201 199 200 201 202 204 206 208 208 206 207 207 209 211
30 18 29 135 237 295 5 25 14 355 4 92 108 51 100 131 147 176 281 313 273 251 211 184 230 270 298 309 313 310 300 299 296 280 239 202 195 206 206 198 205 207 200 201 202 202 202 201 202 202 200 201 202 202 203 205 207 207 207 207 208 209 211
27 259 266 252 222 192 152 121 108 172 288 84 106 328 305 108 123 155 160 245 269 265 215 172 212 247 284 303 289 281 292 296 292 294 277 220 187 194 207 191 185 190 199 205 205 206 207 204 201 201 202 203 202 202 204 205 206 207 208 208 208 210 211
268 261 270 270 229 152 125 106 108 132 114 99 121 196 257 123 79 120 123 187 267 274 340 101 129 302 319 310 282 272 284 292 292 304 309 287 242 206 188 166 148 120 112 134 154 179 252 249 226 211 204 202 204 206 205 205 206 208 210 210 209 210 211
308 298 306 333 15 64 74 17 49 99 65 94 143 175 187 152 164 140 96 253 262 291 2 60 58 22 351 324 306 287 284 296 305 309 311 303 283 252 193 161 139 114 106 116 145 172 188 248 280 265 232 211 206 207 207 206 208 210 210 211 210 210 210
346 346 342 339 344 36 81 307 327 48 65 61 91 142 87 154 215 160 139 230 252 283 6 45 44 28 16 352 326 301 291 298 308 307 307 301 296 294 260 195 156 149 143 137 156 175 180 185 207 240 253 237 216 209 208 208 209 210 210 210 210 210 211
171 283 282 269 262 18 63 297 317 4 73 70 57 115 81 260 242 159 154 222 263 288 354 32 33 30 15 342 319 308 300 301 304 304 304 298 291 296 288 264 200 183 182 166 163 173 181 189 197 204 219 233 228 217 211 210 210 209 209 209 210 210 210
179 192 219 219 161 130 149 203 284 308 58 82 97 96 129 196 200 239 221 211 256 283 294 347 349 353 326 299 304 306 299 300 305 306 304 301 289 285 290 284 261 233 213 187 171 173 183 196 201 200 203 211 218 220 217 213 211 209 207 208 208 209 211
203 188 209 222 142 155 185 175 220 269 134 97 104 150 215 165 123 278 258 198 211 259 249 228 248 272 276 275 284 290 292 298 304 306 303 303 305 309 307 296 278 264 247 220 188 181 189 198 203 202 202 203 204 211 215 213 210 209 207 207 207 208 210
244 196 198 207 147 144 172 174 205 227 176 160 180 214 207 158 166 247 247 205 228 251 240 218 225 255 269 269 269 276 285 290 294 305 310 310 317 323 318 308 298 281 270 262 217 198 198 199 200 200 201 200 197 199 204 207 208 208 207 207 207 208 209
297 277 208 192 155 123 191 216 220 220 204 198 210 223 202 180 213 242 236 244 259 252 219 209 211 243 269 277 275 273 280 290 303 315 316 316 319 321 317 313 313 306 290 289 264 211 201 199 199 200 199 197 195 193 194 197 200 202 204 204 205 206 208
308 320 49 122 141 145 231 276 265 244 258 260 245 236 196 190 242 254 228 281 280 268 212 199 230 271 276 278 273 273 288 307 319 320 318 322 324 324 325 322 320 316 311 306 292 239 213 206 203 203 202 198 195 192 190 192 195 197 198 199 200 203 204
286 317 45 94 103 95 347 297 280 247 232 234 224 216 207 195 197 214 256 281 272 269 186 158 267 270 261 266 275 296 322 324 324 325 329 333 328 324 326 326 323 316 312 313 305 287 256 229 215 211 207 201 195 192 191 194 195 195 195 196 196 197 200
261 291 16 117 74 42 339 280 259 221 200 207 219 243 236 205 162 156 210 238 239 224 169 186 240 253 254 268 290 318 324 325 330 331 335 334 324 319 319 319 320 314 306 306 300 295 286 256 234 223 213 204 200 198 195 197 195 190 190 191 190 193 201
247 283 354 91 62 8 253 248 223 199 206 206 212 235 228 208 181 160 182 209 215 196 189 201 222 234 247 285 312 290 287 311 324 326 333 332 323 323 327 323 321 312 299 294 288 284 278 260 246 235 223 212 206 202 198 197 194 187 187 190 191 197 207
190 309 46 75 220 233 244 269 254 218 199 176 203 261 246 216 220 212 187 209 212 205 209 215 225 240 271 325 304 291 296 297 313 327 332 332 328 328 331 332 329 320 308 298 292 292 282 259 250 239 227 218 208 200 198 196 193 190 192 196 199 202 207
153 71 90 155 239 254 277 300 281 224 136 110 71 305 276 225 201 195 205 222 213 206 213 205 203 271 333 3 292 329 347 335 337 346 337 335 332 325 327 332 330 326 321 313 298 295 288 241 224 218 214 207 192 187 193 193 190 191 195 201 207 206 206
155 143 179 238 296 306 294 284 255 187 151 143 144 257 274 243 193 178 176 187 198 192 166 153 100 14 17 10 312 330 358 357 1 1 354 354 342 324 330 339 334 330 328 321 300 287 276 231 198 178 175 181 177 173 178 182 182 186 193 200 206 206 208
120 106 127 310 346 289 257 251 252 214 176 172 146 133 285 268 204 174 159 162 180 168 145 141 56 36 44 303 280 272 326 355 6 8 7 10 349 325 327 340 336 330 327 322 308 285 267 266 204 156 156 161 164 159 158 162 167 173 182 193 201 206 210
113 117 141 194 202 239 246 240 255 259 194 169 115 64 309 275 206 168 154 159 174 169 159 155 110 88 177 256 267 263 324 16 26 22 8 7 347 323 323 340 333 320 323 325 315 263 210 36 69 129 144 149 150 148 148 152 157 162 171 183 196 207 213
160 139 154 221 224 245 241 227 246 257 186 131 90 27 279 257 190 164 156 164 179 173 159 155 153 161 183 226 260 282 46 41 29 28 11 354 336 319 323 336 324 310 324 337 342 95 73 74 101 125 141 149 148 145 145 149 154 160 171 181 192 206 213
152 152 182 263 255 246 234 223 233 231 144 92 96 220 243 220 164 173 168 167 178 171 159 168 193 200 191 208 256 337 48 42 19 17 3 347 338 326 326 333 323 314 329 338 336 91 73 71 96 116 130 137 135 130 131 136 144 154 167 178 186 196 206
134 152 158 296 283 249 196 170 197 181 129 133 208 220 233 177 162 177 178 171 174 170 167 176 192 198 190 180 124 39 49 51 26 6 353 351 352 345 342 344 339 335 349 359 14 92 84 77 89 106 113 112 110 108 107 113 128 139 143 156 173 183 193
118 78 66 46 274 244 159 122 91 302 174 204 218 204 4 222 166 153 158 179 172 165 164 169 159 141 123 108 93 66 50 45 21 353 357 6 3 357 355 356 356 360 19 35 46 86 88 76 83 97 99 94 93 93 92 97 107 111 113 125 146 165 186
126 110 172 203 215 233 205 138 161 218 217 205 188 153 114 263 165 147 160 193 180 163 153 152 150 139 126 117 107 85 63 45 5 354 11 12 8 4 2 5 13 26 40 44 46 65 89 91 89 92 95 95 92 91 96 102 103 102 110 124 132 137 154
166 175 210 228 223 234 241 180 189 225 240 217 176 145 130 172 193 176 164 171 172 153 143 143 143 137 131 124 112 99 83 54 36 36 27 22 21 16 13 19 30 44 53 46 38 54 87 108 108 99 99 97 89 90 103 111 108 108 113 117 115 109 107
233 218 211 235 251 249 244 220 211 218 223 212 179 138 128 183 196 180 164 162 153 142 144 145 139 138 135 123 114 121 116 80 59 52 39 33 33 29 26 31 39 53 63 59 48 53 69 90 101 105 111 108 100 101 109 108 106 107 108 106 102 100 100
171 241 240 234 240 245 246 245 236 194 144 203 188 159 162 179 173 163 160 149 139 142 152 149 142 144 139 127 123 119 102 84 68 61 49 37 36 39 41 45 51 58 61 57 51 48 45 53 74 90 98 99 101 107 108 106 108 110 109 106 104 102 102
162 225 249 255 264 263 249 226 210 173 130 124 172 152 156 149 140 148 152 143 141 150 159 152 144 143 136 130 132 128 111 107 91 69 59 49 49 53 56 60 63 64 61 58 55 51 44 47 64 76 79 79 90 101 103 104 109 108 106 105 105 104 103
288 274 262 270 297 291 275 239 213 198 170 152 124 111 130 132 130 137 148 151 153 155 157 154 142 136 135 133 130 127 123 122 105 86 76 71 67 65 65 68 70 69 67 67 66 60 57 61 70 78 80 80 88 100 107 114 114 107 101 101 101 102 102
277 255 222 187 177 257 268 249 216 192 167 148 136 136 145 147 149 151 150 144 136 143 157 163 146 134 141 144 131 127 129 118 106 104 101 94 87 82 80 78 76 72 70 71 72 71 72 76 79 79 80 81 85 95 109 119 118 112 108 102 97 97 99
223 229 208 180 156 178 242 243 209 175 156 149 155 167 169 167 167 163 155 148 143 148 166 170 151 137 143 148 134 120 116 115 107 107 110 107 100 98 96 87 75 70 71 73 74 75 76 80 82 81 80 81 85 94 108 116 115 115 113 105 96 93 97
223 232 204 182 158 155 211 215 189 170 159 155 164 176 175 171 176 175 167 162 161 161 164 163 149 142 142 144 135 120 112 112 106 103 107 110 107 104 99 90 79 74 76 78 78 79 80 82 84 84 83 82 85 92 102 111 113 113 112 107 101 98 101
199 227 183 165 151 145 165 164 153 162 166 157 158 172 175 172 176 178 171 165 165 163 157 146 145 147 145 138 131 125 116 108 108 109 109 108 108 104 96 89 84 82 84 86 86 86 86 85 86 87 86 85 87 90 94 100 104 104 105 107 107 107 109